Location: Pasadena, ca
(34.1243°N, 118.1037°W)
Time: 03:21:04
(UTC-08:00)

ISS - Pass Details

Date: 19 November 2017
Orbit: 402 x 407 km, 51.6° (Epoch: 23 November)

Event Time Altitude Azimuth Distance (km) Brightness Sun altitude
Exits shadow 04:57:41 60° 218° (SW) 460 -3.8 -18.9°
Drops below altitude 10° 05:00:48 10° 145° (SE) 1,443 -0.4 -18.3°
Sets 05:02:53 0° 142° (SE) 2,298 0.8 -17.9°
